Location: Gulgong NSW 2852, Australia
(32.2976°S, 149.5548°E)
Time: 00:53:07
(UTC+11:00)

X-37B - Pass Details

Date: 10 December 2021
Orbit: 334 x 337 km, 45.0° (Epoch: 11 January)

Event Time Altitude Azimuth Distance (km) Brightness Sun altitude
Exits shadow 04:02:24 15° 48° (NE) 1,056 2.8 -18.9°
Drops below altitude 10° 04:03:57 10° 80° (E) 1,285 3.7 -18.6°
Sets 04:06:34 0° 106° (ESE) 2,132 5.4 -18.2°
